VK3GY-13 Weather Reports


Display with metric or nautical units.
time (UTC)temp
F
wind
direction
speed
MPH
gust
MPH
rain 1hr
in
rain 24hr
in
rain mn
in
humidity
%
barometer
mb
20260831141016 48 202 1.0 3.0 0.00 0.00 0.00 91 1023.8
20260831134011 49 202 2.0 3.0 0.00 0.00 0.00 91 1024.3
20260831132013 49 202 1.0 3.0 0.00 0.00 0.00 90 1024.6
20260831131011 49 202 2.0 3.0 0.00 0.00 0.00 90 1024.7
20260831130011 49 202 2.0 3.0 0.00 0.00 0.00 90 1024.8
20260831124011 49 202 1.0 3.0 0.00 0.00 0.00 90 1025.0
20260831123011 50 202 2.0 3.0 0.00 0.00 0.00 89 1025.1
20260831122011 50 202 3.0 5.0 0.00 0.00 0.00 89 1025.1
20260831121011 50 202 3.0 5.0 0.00 0.00 0.00 89 1025.1
20260831120010 49 202 2.0 3.0 0.00 0.00 0.00 88 1025.2
20260831115011 48 202 2.0 3.0 0.00 0.00 0.00 88 1025.4
20260831114011 48 202 0.0 0.0 0.00 0.00 0.00 87 1025.4
20260831113011 48 202 0.0 0.0 0.00 0.00 0.00 86 1025.5
20260831112013 48 202 0.0 0.0 0.00 0.00 0.00 86 1025.5
20260831111011 48 202 0.0 0.0 0.00 0.00 0.00 85 1025.5
20260831110010 49 202 0.0 0.0 0.00 0.00 0.00 85 1025.6
20260831104011 49 202 0.0 0.0 0.00 0.00 0.00 84 1025.7
20260831103011 50 202 0.0 0.0 0.00 0.00 0.00 83 1025.7
20260831102011 50 202 0.0 0.0 0.00 0.00 0.00 82 1025.9
20260831100011 51 202 0.0 0.0 0.00 0.00 0.00 80 1026.0
20260831095011 52 202 0.0 0.0 0.00 0.00 0.00 79 1026.1
20260831094012 52 202 0.0 0.0 0.00 0.00 0.00 78 1026.1
20260831093011 53 202 0.0 0.0 0.00 0.00 0.00 77 1026.2
20260831092011 53 202 0.0 0.0 0.00 0.00 0.00 77 1026.2
20260831091011 54 202 0.0 0.0 0.00 0.00 0.00 76 1026.3
20260831090011 55 202 0.0 1.0 0.00 0.00 0.00 75 1026.4
20260831085011 55 202 1.0 2.0 0.00 0.00 0.00 74 1026.4
20260831084010 56 202 0.0 1.0 0.00 0.00 0.00 73 1026.4
20260831083011 57 202 0.0 0.0 0.00 0.00 0.00 73 1026.4
20260831081011 58 202 1.0 2.0 0.00 0.00 0.00 72 1026.3
20260831075011 60 202 0.0 2.0 0.00 0.00 0.00 70 1026.4
20260831074011 61 202 1.0 3.0 0.00 0.00 0.00 69 1026.4
20260831073011 62 202 2.0 3.0 0.00 0.00 0.00 67 1026.4
20260831072011 62 202 2.0 3.0 0.00 0.00 0.00 66 1026.4
20260831070011 63 202 1.0 3.0 0.00 0.00 0.00 65 1026.5
20260831065011 64 202 1.0 3.0 0.00 0.00 0.00 65 1026.7
20260831064010 64 202 2.0 3.0 0.00 0.00 0.00 66 1026.8
20260831062011 65 202 2.0 3.0 0.00 0.00 0.00 64 1026.9
20260831061011 66 202 2.0 3.0 0.00 0.00 0.00 64 1027.0
20260831060011 67 202 2.0 5.0 0.00 0.00 0.00 66 1027.0
20260831055011 67 202 2.0 3.0 0.00 0.00 0.00 65 1027.1
20260831053011 66 202 2.0 5.0 0.00 0.00 0.00 67 1027.2
20260831052013 65 202 3.0 3.0 0.00 0.00 0.00 68 1027.3
20260831050011 65 202 2.0 5.0 0.00 0.00 0.00 67 1027.7
20260831045011 66 202 2.0 5.0 0.00 0.00 0.00 67 1027.8
20260831044011 67 202 2.0 5.0 0.00 0.00 0.00 67 1028.0
20260831043011 66 202 1.0 5.0 0.00 0.00 0.00 66 1028.1
20260831042010 66 202 3.0 5.0 0.00 0.00 0.00 68 1028.3
20260831040012 65 202 3.0 6.0 0.00 0.00 0.00 69 1028.5
20260831035011 64 202 1.0 3.0 0.00 0.00 0.00 69 1028.6
20260831034011 63 202 2.0 5.0 0.00 0.00 0.00 69 1028.8
20260831033011 63 202 3.0 6.0 0.00 0.00 0.00 68 1029.1
20260831032011 63 202 2.0 3.0 0.00 0.00 0.00 68 1029.2
20260831031010 63 202 2.0 6.0 0.00 0.00 0.00 68 1029.3
20260831025011 65 202 3.0 5.0 0.00 0.00 0.00 68 1029.7
20260831023011 63 202 3.0 6.0 0.00 0.00 0.00 73 1030.0
20260831022011 62 202 2.0 3.0 0.00 0.00 0.00 74 1030.2
20260831021011 61 202 1.0 6.0 0.00 0.00 0.00 74 1030.4
20260831020011 60 202 2.0 3.0 0.00 0.00 0.00 76 1030.6
20260831015010 58 202 1.0 5.0 0.00 0.00 0.00 78 1030.8
20260831014011 57 202 3.0 5.0 0.00 0.00 0.00 78 1030.9
20260831013010 57 201 3.0 5.0 0.00 0.00 0.00 78 1030.9
20260831012011 57 201 1.0 5.0 0.00 0.00 0.00 79 1030.9
20260831011013 57 201 1.0 3.0 0.00 0.00 0.00 80 1031.0
20260831010010 56 201 2.0 5.0 0.00 0.00 0.00 80 1031.1